Weather History for KRVS - March, 2014

Change the Weather History Date:

Monday, March 10, 2014

  Actual Average (KTUL) Record (KTUL)
Temperature  
Mean Temperature 56 °F 49 °F  
Max Temperature 79 °F 61 °F 91 °F (1955)
Min Temperature 33 °F 38 °F 4 °F (1948)
Degree Days  
Heating Degree Days 9 16  
Month to date heating degree days 172  
Since 1 July heating degree days 3083  
Cooling Degree Days 0 0  
Month to date cooling degree days 0  
Year to date cooling degree days 1  
Growing Degree Days 6 (Base 50)    
Moisture  
Dew Point 33 °F    
Average Humidity 60    
Maximum Humidity 100    
Minimum Humidity 15    
Precipitation  
Precipitation 0.00 in 0.10 in 1.91 in (1974)
Month to date precipitation 1.00  
Year to date precipitation 4.51  
Sea Level Pressure  
Sea Level Pressure 29.97 in    
Wind  
Wind Speed 4 mph (SSW)    
Max Wind Speed 17 mph    
Max Gust Speed 26 mph    
Visibility 7 miles    
Events Fog    
T = Trace of Precipitation, MM = Missing Value Source: NWS Daily Summary

Daily Weather History Graph

Daily Weather History Graph

Search for Another Location

Airport or City:

Trip Planner

Search our weather history database for the weather conditions in past years. The results will help you decide how hot, cold, wet, or windy it might be!

Date:

Astronomy

Mar. 10, 2014 Rise Set
Actual Time 7:41 AM CDT 7:27 PM CDT
Civil Twilight 7:16 AM CDT 7:52 PM CDT
Nautical Twilight 6:46 AM CDT 8:22 PM CDT
Astronomical Twilight 6:16 AM CDT 8:52 PM CDT
Moon 2:18 PM CDT (3/10) 3:46 AM CDT (3/10)
Length of Visible Light 12h 36m
Length of Day
11h 45m
Waxing Gibbous, 70% of the Moon is Illuminated
Mar 10
Waxing Gibbous
Mar 16
Full
Mar 23
Last Quarter
Mar 30
New
Apr 7
First Quarter

Hourly Weather History & Observations

Time (CDT) Temp. Windchill Dew Point Humidity Pressure Visibility Wind Dir Wind Speed Gust Speed Precip Events Conditions
12:53 AM 41.0 °F - 37.9 °F 89% 30.14 in 6.0 mi Calm Calm - N/A   Clear
1:53 AM 44.1 °F 40.1 °F 37.9 °F 79% 30.10 in 10.0 mi SSW 6.9 mph - N/A   Clear
2:53 AM 43.0 °F 40.3 °F 39.0 °F 86% 30.09 in 9.0 mi SSW 4.6 mph - N/A   Clear
3:53 AM 39.0 °F - 36.0 °F 89% 30.08 in 8.0 mi Calm Calm - N/A   Clear
4:34 AM 35.6 °F - 33.8 °F 93% 30.06 in 2.5 mi Calm Calm - N/A   Clear
4:53 AM 33.1 °F - 33.1 °F 100% 30.08 in 2.5 mi Calm Calm - N/A   Clear
5:20 AM 33.8 °F - 32.0 °F 93% 30.05 in 1.5 mi Calm Calm - N/A   Clear
5:51 AM 33.8 °F - 33.8 °F 100% 30.05 in 0.8 mi Calm Calm - N/A   Clear
5:53 AM 34.0 °F - 33.1 °F 96% 30.06 in 1.0 mi Calm Calm - N/A   Clear
6:22 AM 33.8 °F - 33.8 °F 100% 30.04 in 0.5 mi Calm Calm - N/A Fog Fog
6:46 AM 33.8 °F - 32.0 °F 93% 30.04 in 1.0 mi Calm Calm - N/A   Clear
6:53 AM 34.0 °F - 33.1 °F 96% 30.05 in 7.0 mi Calm Calm - N/A   Clear
7:53 AM 34.0 °F - 33.1 °F 96% 30.04 in 7.0 mi Calm Calm - N/A   Clear
8:53 AM 45.0 °F 41.8 °F 39.9 °F 82% 30.04 in 7.0 mi South 5.8 mph - N/A   Clear
9:53 AM 52.0 °F - 39.9 °F 63% 30.02 in 10.0 mi SSW 9.2 mph - N/A   Clear
10:53 AM 59.0 °F - 37.9 °F 46% 30.01 in 10.0 mi SSW 12.7 mph - N/A   Clear
11:53 AM 66.0 °F - 36.0 °F 33% 29.98 in 10.0 mi SSW 11.5 mph - N/A   Clear
12:53 PM 71.1 °F - 33.1 °F 25% 29.97 in 10.0 mi SW 12.7 mph - N/A   Clear
1:53 PM 75.9 °F - 28.9 °F 18% 29.92 in 10.0 mi SW 16.1 mph 26.5 mph N/A   Clear
2:53 PM 79.0 °F - 28.0 °F 15% 29.88 in 10.0 mi SSW 11.5 mph 19.6 mph N/A   Clear
3:53 PM 79.0 °F - 30.0 °F 17% 29.86 in 10.0 mi SSW 11.5 mph 21.9 mph N/A   Clear
4:53 PM 79.0 °F - 28.0 °F 15% 29.83 in 10.0 mi SW 12.7 mph 18.4 mph N/A   Clear
5:53 PM 78.1 °F - 26.1 °F 15% 29.81 in 10.0 mi SSW 17.3 mph 20.7 mph N/A   Clear
6:53 PM 75.0 °F - 28.0 °F 18% 29.80 in 10.0 mi SW 9.2 mph 16.1 mph N/A   Clear
7:53 PM 64.9 °F - 30.0 °F 27% 29.81 in 10.0 mi South 3.5 mph - N/A   Clear
8:53 PM 60.1 °F - 30.0 °F 32% 29.81 in 10.0 mi SSW 3.5 mph - N/A   Clear
9:53 PM 57.0 °F - 32.0 °F 39% 29.81 in 10.0 mi SW 3.5 mph - N/A   Clear
10:53 PM 61.0 °F - 35.1 °F 38% 29.81 in 10.0 mi South 6.9 mph - N/A   Clear
11:53 PM 59.0 °F - 36.0 °F 42% 29.79 in 10.0 mi South 6.9 mph - N/A   Clear